Home   Weather   Ho Chi Minh   Past weeks

Flag for Vietnam Past Weather in Ho Chi Minh, Vietnam — Yesterday and Last 2 Weeks

Now
79 °F

Passing clouds.


Feels Like: 82 °F
Forecast: 76 / 83 °F
Wind: 2 mph from North

Location: Ho Chi Minh

Current Time: Jan 20, 2017 at 4:56:45 am

Latest Report: Jan 20, 2017 at 4:30 am


Visibility: N/A

Pressure: 29.86 "Hg

Humidity: 89%

Dew Point: 75 °F

Location of Ho Chi MinhLocation

Past Weather in Ho Chi Minh — Graph

°F

Ho Chi Minh Temperature Yesterday

Maximum temperature yesterday: 90 °F (at 11:30 am)
Minimum temperature yesterday: 77 °F (at 2:30 am)
Average temperature yesterday: 83 °F

High & Low Weather Summary for the Past Weeks

 TemperatureHumidityPressure
High93 °F (Jan 13, 2:30 pm)100% (Jan 5, 6:30 am)29.95 "Hg (Jan 5, 6:30 am)
Low73 °F (Jan 9, 4:30 am)34% (Jan 18, 3:00 pm)29.65 "Hg (Jan 13, 3:00 pm)
Average82 °F74%29.79 "Hg
* Reported Jan 5 3:00 am — Jan 20 3:30 am, Ho Chi Minh, Weather by CustomWeather, © 2017

Note: Actual official high and low records may vary slightly from our data, if they occured in-between our weather recording intervals... More about our weather records

Advertising

Ho Chi Minh Weather History for the Previous 24 Hours

Scroll right to see more
 ConditionsComfort  
Time TempWeatherWind HumidityBarometerVisibility
3:30 am
Fri, Jan 20
79 °FPassing clouds.3 mph89%29.83 "HgN/A
3:00 am79 °FPassing clouds.2 mph89%29.83 "HgN/A
2:30 am81 °FPassing clouds.2 mph84%29.83 "HgN/A
2:00 am81 °FPassing clouds.3 mph84%29.86 "HgN/A
1:30 am81 °FPassing clouds.3 mph79%29.86 "HgN/A
1:00 am81 °FPassing clouds.3 mph74%29.86 "HgN/A
12:30 am81 °FPassing clouds.5 mph70%29.89 "HgN/A
12:00 am82 °FPartly cloudy.5 mph70%29.86 "HgN/A
11:30 pm
Thu, Jan 19
82 °FPartly cloudy.5 mph70%29.89 "HgN/A
11:00 pm82 °FPartly cloudy.8 mph70%29.89 "HgN/A
10:00 pm84 °FPartly cloudy.2 mph66%29.89 "HgN/A
9:30 pm84 °FPartly cloudy.2 mph70%29.89 "HgN/A
9:00 pm84 °FPartly cloudy.2 mph70%29.89 "HgN/A
8:30 pm84 °FPassing clouds.2 mph74%29.89 "HgN/A
8:00 pm84 °FPassing clouds.1 mph70%29.89 "HgN/A
7:00 pm86 °FPassing clouds.5 mph62%29.86 "HgN/A
6:30 pm86 °FPartly cloudy.5 mph62%29.83 "HgN/A
6:00 pm86 °FPartly cloudy.6 mph59%29.83 "HgN/A
5:30 pm88 °FPartly sunny.5 mph55%29.83 "HgN/A
5:00 pm88 °FPartly sunny.6 mph55%29.83 "HgN/A
4:30 pm88 °FBroken clouds.7 mph52%29.80 "HgN/A
4:00 pm88 °FBroken clouds.6 mph55%29.80 "HgN/A
3:30 pm90 °FBroken clouds.8 mph49%29.80 "HgN/A
3:00 pm90 °FBroken clouds.6 mph49%29.80 "HgN/A
2:00 pm90 °FPartly sunny.9 mph49%29.83 "HgN/A
1:30 pm90 °FPartly sunny.6 mph49%29.83 "HgN/A
1:00 pm90 °FScattered clouds.8 mph46%29.86 "HgN/A
12:30 pm90 °FScattered clouds.6 mph49%29.86 "HgN/A
12:00 pm90 °FScattered clouds.5 mph49%29.89 "HgN/A
11:30 am90 °FPassing clouds.2 mph52%29.89 "HgN/A
11:00 am86 °FSunny.1 mph59%29.92 "Hg10 mi
10:30 am86 °FPassing clouds.2 mph59%29.92 "Hg5 mi
10:00 am86 °FPassing clouds.2 mph59%29.92 "Hg5 mi
9:30 am86 °FPassing clouds.2 mph59%29.92 "Hg5 mi
9:00 am84 °FPassing clouds.2 mph66%29.92 "Hg5 mi
8:30 am82 °FPassing clouds.2 mph70%29.92 "Hg4 mi
8:00 am79 °FPassing clouds.1 mph84%29.92 "Hg4 mi
7:30 am77 °FFog.2 mph94%29.92 "Hg2 mi
7:00 am77 °FFog.3 mph94%29.89 "Hg2 mi
6:30 am77 °FScattered clouds.3 mph94%29.89 "Hg4 mi
6:00 am77 °FPassing clouds.2 mph100%29.89 "Hg4 mi
5:30 am77 °FPassing clouds.No wind94%29.86 "Hg4 mi
5:00 am77 °FPassing clouds.1 mph94%29.86 "Hg4 mi
4:30 am77 °FPassing clouds.1 mph89%29.86 "HgN/A
4:00 am77 °FPassing clouds.2 mph94%29.83 "HgN/A
Weather by CustomWeather, © 2017

See weather overviewHow to use our weather pages